Overview Statistics Trail Chart Weather Telemetry Raw packets
 

This is the latest recevied weather packets stored in our database for station/object M0HPP-13. If no packets are shown the sender has not sent any weather packets the latest 10 day(s).

<< 6 7 8 9 10 11 12 >>
Time Temp. Humidity Pressure Rain* Wind** Luminosity Snow
1788524286 13.89° C 90% 996.4 hPa 1.27 mm - 437 W/m² -
1788523686 13.33° C 91% 996.5 hPa 1.27 mm - 142 W/m² -
1788523086 12.78° C 92% 996.3 hPa 1.27 mm - 202 W/m² -
1788522486 15° C 78% 996.2 hPa 1.02 mm - 63 W/m² -
1788521886 17.22° C 68% 996 hPa 0 mm - 196 W/m² -
1788521286 16.67° C 73% 996 hPa 0 mm - 498 W/m² -
1788520686 16.11° C 77% 996 hPa 0 mm - 442 W/m² -
1788520086 15.56° C 78% 996 hPa 0 mm - 406 W/m² -
1788519486 14.44° C 82% 996 hPa 0 mm - 396 W/m² -
1788518886 13.33° C 87% 995.9 hPa 0 mm - 319 W/m² -
1788518286 13.89° C 84% 995.9 hPa 0.51 mm - 182 W/m² -
1788517686 15° C 82% 995.6 hPa 1.52 mm - 328 W/m² -
1788517086 14.44° C 90% 995.5 hPa 1.52 mm - 344 W/m² -
1788516486 12.78° C 97% 995.5 hPa 1.52 mm - 335 W/m² -
1788514686 13.33° C 92% 995.1 hPa 0 mm - 67 W/m² -
1788514086 12.78° C 93% 994.7 hPa 0 mm - 164 W/m² -
1788513486 13.33° C 92% 994.6 hPa 0 mm - 94 W/m² -
1788512886 12.78° C 93% 994.6 hPa 0 mm - 179 W/m² -
1788512286 12.78° C 95% 994.7 hPa 0 mm - 111 W/m² -
1788511686 12.78° C 96% 994.7 hPa 0 mm - 139 W/m² -
1788511086 12.22° C 96% 994.8 hPa 0 mm - 120 W/m² -
1788510486 12.22° C 97% 994.9 hPa 0 mm - 125 W/m² -
1788509886 12.22° C 97% 995 hPa 0 mm - 88 W/m² -
1788509286 12.22° C 97% 995 hPa 0.51 mm - 78 W/m² -
1788508686 12.22° C 97% 995 hPa 0.51 mm - 111 W/m² -

* Rain latest hour (hover to see other rain measurements)
** Current wind speed in m/s (hover to see current wind gust speed)